Volver al catálogo

KSM1-A

ActivoCienciaVLEO
NORAD 46912·PAYLOAD·🇱🇺 Luxembourg

Lanzado Nov 7, 2020 desde Satish Dhawan Space Centre

Loading…

Próximos Pases (próximas 24 horas)

TLE

ActualizadoSource: Space-Track

Época: Sep 14, 2026, 09:00 UTC

1 46912U 20081H   26257.37500369  .00006763  00000-0  25130-3 0  9994
2 46912  36.8956 230.8734 0003070 305.1793  54.8668 15.27185055322818

Sigue KSM1-A en tiempo real con AllMySat

Download on the App Store